Stephenville,

10:19 AM NDT on August 18, 2017 (GMT -0230)
Stephenville

Weather History for CYJT - March, 2013

Change the Weather History Date:

Wednesday, March 13, 2013

  Actual Average Record
Temperature  
Mean Temperature 42 °F -  
Max Temperature 48 °F 37 °F 48 °F (2013)
Min Temperature 35 °F 23 °F 3 °F (2003)
Degree Days  
Heating Degree Days 24    
Moisture  
Dew Point 35 °F    
Average Humidity 74    
Maximum Humidity 87    
Minimum Humidity 52    
Precipitation  
Precipitation 0.00 in 0.10 in - ()
Sea Level Pressure  
Sea Level Pressure 30.21 in    
Wind  
Wind Speed 8 mph ()    
Max Wind Speed 24 mph    
Max Gust Speed 31 mph    
Visibility 15.0 miles    
Events      
Averages and records for this station are not official NWS values.
T = Trace of Precipitation, MM = Missing Value Source: Averaged Metar Reports

Daily Weather History Graph

Daily Weather History Graph

Search for Another Location

Airport or City:

Trip Planner

Search our weather history database for the weather conditions in past years. The results will help you decide how hot, cold, wet, or windy it might be!

Date:

Astronomy

Mar. 13, 2013 Rise Set
Actual Time 7:41 AM NDT 7:26 PM NDT
Civil Twilight 7:09 AM NDT 7:58 PM NDT
Nautical Twilight 6:33 AM NDT 8:34 PM NDT
Astronomical Twilight 5:56 AM NDT 9:11 PM NDT
Moon 8:05 AM NDT (3/13) 9:53 PM NDT (3/13)
Length of Visible Light 12h 48m
Length of Day
11h 45m
Waxing Crescent, 4% of the Moon is Illuminated
Mar 13
Waxing Crescent
Mar 19
First Quarter
Mar 27
Full
Apr 3
Last Quarter
Apr 10
New

Hourly Weather History & Observations

Time (NDT) Temp. Windchill Dew Point Humidity Pressure Visibility Wind Dir Wind Speed Gust Speed Precip Events Conditions
12:30 AM 39.2 °F 35.9 °F 23.0 °F 52% 30.29 in 15.0 mi NE 4.6 mph - N/A   Mostly Cloudy
1:30 AM 41.0 °F - 26.6 °F 57% 30.29 in 15.0 mi Calm Calm - N/A   Mostly Cloudy
2:30 AM 39.2 °F - 30.2 °F 70% 30.30 in 15.0 mi Calm Calm - N/A   Mostly Cloudy
3:30 AM 38 °F - 33 °F 76% 30.31 in 15 mi NW 5.8 mph - -   Partly Cloudy
3:30 AM 37.4 °F 32.8 °F 33.8 °F 87% 30.31 in 15.0 mi NW 5.8 mph - N/A   Mostly Cloudy
4:30 AM 39.2 °F 33.6 °F 35.6 °F 87% 30.30 in 15.0 mi WSW 8.1 mph - N/A   Mostly Cloudy
5:30 AM 39.2 °F - 33.8 °F 81% 30.30 in 15.0 mi Calm Calm - N/A   Mostly Cloudy
6:30 AM 41.0 °F 38.0 °F 37.4 °F 87% 30.29 in 15.0 mi NW 4.6 mph - N/A   Mostly Cloudy
7:30 AM 39.2 °F 35.0 °F 35.6 °F 87% 30.28 in 15.0 mi East 5.8 mph - N/A   Mostly Cloudy
8:30 AM 41.0 °F 34.3 °F 35.6 °F 81% 30.27 in 15.0 mi SE 11.5 mph 17.3 mph N/A   Mostly Cloudy
9:30 AM 40 °F - 37 °F 87% 30.27 in 15 mi East 11.5 mph - -   Mostly Cloudy
9:30 AM 41.0 °F 34.3 °F 37.4 °F 87% 30.27 in 15.0 mi East 11.5 mph 17.3 mph N/A   Mostly Cloudy
10:30 AM 42.8 °F 35.8 °F 37.4 °F 81% 30.26 in 15.0 mi East 13.8 mph 20.7 mph N/A   Mostly Cloudy
11:30 AM 44.6 °F 38.1 °F 39.2 °F 81% 30.24 in 15.0 mi ESE 13.8 mph - N/A   Mostly Cloudy
12:30 PM 46.4 °F 40.7 °F 37.4 °F 71% 30.22 in 15.0 mi SE 12.7 mph - N/A   Mostly Cloudy
1:30 PM 48.2 °F - 37.4 °F 66% 30.20 in 15.0 mi SE 11.5 mph - N/A   Mostly Cloudy
2:30 PM 48.2 °F - 37.4 °F 66% 30.19 in 15.0 mi ESE 13.8 mph 19.6 mph N/A   Mostly Cloudy
3:30 PM 46 °F - 35 °F 56% 30.18 in 15 mi SE 13.8 mph - -   Mostly Cloudy
3:30 PM 46.4 °F 40.4 °F 35.6 °F 66% 30.18 in 15.0 mi SE 13.8 mph 19.6 mph N/A   Mostly Cloudy
4:30 PM 44.6 °F 36.6 °F 35.6 °F 71% 30.16 in 15.0 mi SE 19.6 mph 31.1 mph N/A   Mostly Cloudy
5:30 PM 42.8 °F 34.8 °F 35.6 °F 76% 30.16 in 15.0 mi SE 17.3 mph 26.5 mph N/A   Mostly Cloudy
6:30 PM 42.8 °F 34.3 °F 33.8 °F 70% 30.12 in 15.0 mi ESE 19.6 mph 29.9 mph N/A   Mostly Cloudy
7:30 PM 41.0 °F 31.9 °F 33.8 °F 76% 30.11 in 15.0 mi ESE 19.6 mph - N/A   Mostly Cloudy
8:30 PM 42.8 °F 34.5 °F 33.8 °F 70% 30.09 in 15.0 mi East 18.4 mph - N/A   Mostly Cloudy
9:30 PM 43 °F - 34 °F 61% 30.09 in 15 mi SE 20.7 mph - -   Mostly Cloudy
9:30 PM 42.8 °F 34.0 °F 33.8 °F 70% 30.09 in 15.0 mi SE 20.7 mph 28.8 mph N/A   Mostly Cloudy
10:30 PM 42.8 °F 34.3 °F 35.6 °F 76% 30.06 in 15.0 mi SE 19.6 mph 27.6 mph N/A   Mostly Cloudy
11:30 PM 42.8 °F 33.3 °F 35.6 °F 76% 30.04 in 15.0 mi ESE 24.2 mph - N/A   Mostly Cloudy